This is the latest recevied weather packets stored in our database for station/object KI4MRC. If no packets are shown the sender has not sent any weather packets the latest 10 day(s).
| Time | Temp. | Humidity | Pressure | Rain* | Wind** | Luminosity | Snow |
|---|---|---|---|---|---|---|---|
| 1777579503 | 31.67° C | 51% | 1010.1 hPa | 0 mm | - | 105 W/m² | - |
| 1777579197 | 31.67° C | 49% | 1010.2 hPa | 0 mm | - | 98 W/m² | - |
| 1777578892 | 31.67° C | 50% | 1010.1 hPa | 0 mm | - | 122 W/m² | - |
| 1777578589 | 31.11° C | 52% | 1010.3 hPa | 0 mm | - | 136 W/m² | - |
| 1777578289 | 31.11° C | 55% | 1010.5 hPa | 0 mm | - | 170 W/m² | - |
| 1777577985 | 31.11° C | 54% | 1010.6 hPa | 0 mm | - | 127 W/m² | - |
| 1777577679 | 31.67° C | 53% | 1010.6 hPa | 0 mm | - | 139 W/m² | - |
| 1777577378 | 31.11° C | 54% | 1010.8 hPa | 0 mm | - | 216 W/m² | - |
| 1777577073 | 31.11° C | 55% | 1010.9 hPa | 0 mm | - | 140 W/m² | - |
| 1777576770 | 31.11° C | 54% | 1011 hPa | 0 mm | - | 187 W/m² | - |
| 1777576470 | 31.11° C | 53% | 1011.1 hPa | 0 mm | - | 250 W/m² | - |
| 1777576167 | 31.67° C | 52% | 1010.8 hPa | 0 mm | - | 212 W/m² | - |
| 1777575867 | 31.67° C | 52% | 1011 hPa | 0 mm | - | 247 W/m² | - |
| 1777575564 | 32.22° C | 53% | 1011 hPa | 0 mm | - | 441 W/m² | - |
| 1777575260 | 32.22° C | 52% | 1011.1 hPa | 0 mm | - | 565 W/m² | - |
| 1777574956 | 31.67° C | 56% | 1011.1 hPa | 0 mm | - | 990 W/m² | - |
| 1777574652 | 31.67° C | 52% | 1011.1 hPa | 0 mm | - | 1006 W/m² | - |
| 1777574349 | 31.11° C | 56% | 1011.1 hPa | 0 mm | - | 1010 W/m² | - |
| 1777574044 | 31.11° C | 54% | 1011.2 hPa | 0 mm | - | 259 W/m² | - |
| 1777573739 | 31.11° C | 55% | 1011.4 hPa | 0 mm | - | 202 W/m² | - |
| 1777573435 | 31.11° C | 56% | 1011.2 hPa | 0 mm | - | 197 W/m² | - |
| 1777573131 | 31.11° C | 54% | 1011.3 hPa | 0 mm | - | 298 W/m² | - |
| 1777572828 | 31.67° C | 52% | 1011.5 hPa | 0 mm | - | 260 W/m² | - |
| 1777572524 | 31.67° C | 51% | 1011.4 hPa | 0 mm | - | 534 W/m² | - |
| 1777572219 | 32.22° C | 50% | 1011.3 hPa | 0 mm | - | 1144 W/m² | - |
* Rain latest hour (hover to see other rain measurements)
** Current wind speed in m/s (hover to see current wind gust speed)